Fort Dix, NJ

5:07 AM EST on February 06, 2016 (GMT -0500)
McGuire Air Force Base

Weather History for KWRI - October, 2013

Change the Weather History Date:

Monday, October 21, 2013

  Actual Average Record
Temperature  
Mean Temperature 51 °F -  
Max Temperature 68 °F 62 °F 82 °F (2001)
Min Temperature 35 °F 42 °F 34 °F (2008)
Degree Days  
Heating Degree Days 14    
Growing Degree Days 1 (Base 50)    
Moisture  
Dew Point 39 °F    
Average Humidity 68    
Maximum Humidity 91    
Minimum Humidity 33    
Precipitation  
Precipitation 0.00 in - - ()
Sea Level Pressure  
Sea Level Pressure 30.08 in    
Wind  
Wind Speed 3 mph (SSW)    
Max Wind Speed 13 mph    
Max Gust Speed 21 mph    
Visibility 10 miles    
Events      
Averages and records for this station are not official NWS values.
T = Trace of Precipitation, MM = Missing Value Source: NWS Daily Summary

Daily Weather History Graph

Daily Weather History Graph

Search for Another Location

Airport or City:

Trip Planner

Search our weather history database for the weather conditions in past years. The results will help you decide how hot, cold, wet, or windy it might be!

Date:

Astronomy

Oct. 21, 2013 Rise Set
Actual Time 7:15 AM EDT 6:09 PM EDT
Civil Twilight 6:47 AM EDT 6:37 PM EDT
Nautical Twilight 6:16 AM EDT 7:08 PM EDT
Astronomical Twilight 5:44 AM EDT 7:40 PM EDT
Moon 8:00 PM EDT (10/21) 9:48 AM EDT (10/21)
Length of Visible Light 11h 49m
Length of Day
10h 54m
Waning Gibbous, 93% of the Moon is Illuminated
Oct 21
Waning Gibbous
Oct 26
Last Quarter
Nov 3
New
Nov 10
First Quarter
Nov 17
Full

Hourly Weather History & Observations

Time (EDT) Temp. Dew Point Humidity Pressure Visibility Wind Dir Wind Speed Gust Speed Precip Events Conditions
12:58 AM 41.4 °F 37.0 °F 85% 30.08 in 10.0 mi Calm Calm - N/A   Clear
1:58 AM 39.4 °F 35.8 °F 87% 30.10 in 10.0 mi Calm Calm - N/A   Clear
2:58 AM 37.6 °F 34.7 °F 89% 30.10 in 10.0 mi Calm Calm - N/A   Clear
3:58 AM 38.3 °F 35.4 °F 89% 30.10 in 10.0 mi Calm Calm - N/A   Clear
4:58 AM 37.0 °F 34.7 °F 91% 30.12 in 10.0 mi Calm Calm - N/A   Clear
5:58 AM 36.5 °F 34.2 °F 91% 30.14 in 10.0 mi Calm Calm - N/A   Clear
6:58 AM 35.6 °F 32.9 °F 90% 30.14 in 10.0 mi ENE 1.2 mph - N/A   Clear
7:58 AM 36.5 °F 34.0 °F 91% 30.14 in 10.0 mi Calm Calm - N/A   Clear
8:58 AM 45.7 °F 41.9 °F 87% 30.17 in 10.0 mi Variable 1.2 mph - N/A   Clear
9:58 AM 56.8 °F 43.2 °F 60% 30.15 in 10.0 mi Variable 2.3 mph - N/A   Clear
10:58 AM 61.9 °F 41.0 °F 46% 30.14 in 10.0 mi West 4.6 mph - N/A   Clear
11:58 AM 65.1 °F 39.2 °F 39% 30.12 in 10.0 mi SW 5.8 mph - N/A   Clear
12:58 PM 66.6 °F 38.3 °F 35% 30.10 in 10.0 mi WSW 5.8 mph - N/A   Clear
1:58 PM 67.5 °F 37.6 °F 33% 30.07 in 10.0 mi SSW 8.1 mph - N/A   Clear
2:58 PM 67.5 °F 37.0 °F 33% 30.05 in 10.0 mi South 9.2 mph - N/A   Clear
3:58 PM 67.3 °F 37.4 °F 33% 30.03 in 10.0 mi WSW 11.5 mph 17.3 mph N/A   Clear
4:58 PM 64.9 °F 39.9 °F 40% 30.02 in 10.0 mi South 12.7 mph 20.7 mph N/A   Clear
5:58 PM 59.9 °F 38.5 °F 45% 30.04 in 10.0 mi South 6.9 mph - N/A   Clear
6:58 PM 54.7 °F 41.0 °F 60% 30.05 in 10.0 mi South 5.8 mph - N/A   Clear
7:58 PM 52.0 °F 43.0 °F 71% 30.05 in 10.0 mi South 4.6 mph - N/A   Clear
8:58 PM 49.5 °F 43.2 °F 79% 30.04 in 10.0 mi South 5.8 mph - N/A   Clear
9:58 PM 49.1 °F 43.3 °F 81% 30.02 in 10.0 mi South 4.6 mph - N/A   Clear
10:58 PM 48.7 °F 43.5 °F 82% 30.00 in 10.0 mi South 5.8 mph - N/A   Clear
11:58 PM 48.2 °F 43.7 °F 84% 29.99 in 10.0 mi SSW 4.6 mph - N/A   Clear